sat.trackr.live / text

‹ back to catalog

STARLINK-36482

NORAD 67309 · 2026-002E

PAYLOAD ACTIVE UNKNOWN

§ Identity

Operator
Country
US
Launch date
2026-01-04
Launch site
AFETR
Launch vehicle
Mass (kg)
RCS (m²)

Purposes: comms

External: N2YO · Heavens-Above · Gunter

§ Orbital elements

Epoch: 2026-05-25T00:32:19.411296Z

Period
94.27 min
Inclination
43.0011°
Eccentricity
0.0002983
Mean motion
15.27592645 rev/d
Perigee alt
481.0 km
Apogee alt
485.1 km
Semi-major
6,861.1 km
B*
6.0364e-4
RAAN
254.1281°
Arg perigee
265.8065°
Mean anomaly
94.2446°
Rev number
2,275

§ Raw data

STARLINK-364821 67309U 26002E   26145.02244689  .00016393  00000+0  60364-3 0  99912 67309  43.0011 254.1281 0002983 265.8065  94.2446 15.27592645 22754

JSON: /api/v1/satellites/67309 · /tle

For live sub-satellite position, see the globe view (requires WebGL).

§ Visibility from observer

Set your observer location to see the next 7 days of passes ≥ 10°. The values pass through the URL so the page stays shareable.

No JS? Fill the form by hand. The geolocation button needs JavaScript.